Погода в Туркестане

Погода в Туркестане : погода сейчас, прогноз погоды и архив. Всё, что Вы хотите узнать о погоде в Туркестане!

Хотите узнать прогноз погоды в Туркестане? Тогда Вам сюда: Погода в Туркестане

Поиск расширенной информации на нашем сайте:

Другие новости

Новости СМИ2

Главная страница сайта

Новости сайта

03.07.2017

Напоминаем, что на нашем специализированном сайте Метеоцентр.Азия вы можете получить высокодетализированные автоматические прогнозы погоды по пунктам России, СНГ и мира в авиационном формате (включающие направление и скорость ветра, видимость, явления погоды, количество и форму облачности, нижнюю и верхнюю границу облачности).


Погода в Туркестане - сегодня

Время (UTC), дата Ветер
(°,м/с) 
Видим.   Явления Облачность Т
(°С)
Тd
(°С)
f(%) Тe
(°С)
Pmin
(гПа)
dP
(гПа)
Po
(мм)
O2
(г/м3)
Тmin Tmax R s Состояние
почвы
21 18.04.18 080 (В) н/о    4/0 средняя 
[Ac lent]
+8.3 +5.9 85 +8  1024.1  -1  749  292           
00 19.04.18 100 (В) н/о    9/5 600 м кучево-дожд., средняя 
[Cb cap|Ac As]
+7.9 +6.5 91 +7  1023.2  -0.9  749  292           
06 19.04.18 150 (ЮВ) 10 км    4/0 средняя 
[Ac As]
+16.7 +2.7 39 +18  1021.4  -0.7  748  284  +7.1         
09 19.04.18 310 (СЗ) 10 км    8/6 600 м кучево-дожд., средняя 
[Cb cap|Ac As]
+18.4 -1.7 25 +19  1020.2  -1.1  747  282           
12 19.04.18 240 (ЮЗ) 10 км    8/5 600 м кучево-дожд., средняя, верхняя 
[Cb cap|Ac As|Ci sp]
+19 -3 22 +20  1019.4  -0.7  746  282           
15 19.04.18 тихо ()   10 км    5/3 600 м кучево-дожд., средняя 
[Cb cap|Ac As]
+15.6 +0.4 35 +16  1020  0.2  747  284    +19.8       
18 19.04.18 060 (СВ) н/о    ясно 
+11.5 +2.3 53 +13  1020.4  0.1  747  288    +19.8       
21 19.04.18 040 (СВ) н/о    ясно 
+9.1 +3.2 67 +10  1019.6  -1  746  290           
00 20.04.18 030 (СВ) н/о    ясно 
+7 +3.2 77 +7  1019.3  -0.5  746  292           
06 20.04.18 060 (СВ) 10 км    8/4 1000 м средняя 
[Cu med, cong|Ac As]
+19 -1.4 25 +19  1016.6  -1.4  744  281  +7         
09 20.04.18 060 (СВ) 20000 м    9/5 1000 м средняя 
[Cu med, cong|Ac As]
+20.2 -1.4 23 +20  1014.7  -1.8  743  279           
12 20.04.18 110 (В) 20000 м    9/4 1000 м средняя 
[Cu med, cong|Ac As]
+20.3 -1.2 23 +20  1013  -1.7  742  278           
15 20.04.18 080 (В) 20000 м    9/0 средняя 
[Ac As]
+16.5 +2.7 40 +18  1013.3  -0.1  742  281    +21.1       
18 20.04.18 080 (В) н/о    3/0 средняя 
[Ac lent]
+12.7 +4.3 57 +13  1013.3  -0.2  742  285    +21.1       
21 20.04.18 080 (В) н/о    ясно 
+10.4 +3.6 63 +10  1013.5  -0.1  742  287           
00 21.04.18 110 (В) 20000 м    ясно 
+7.8 +4.8 81 +7  1014  0.4  742  290           
06 21.04.18 150 (ЮВ) 10 км    4/0 верхняя 
[Cu hum|Ci fib]
+19.7 +6.1 41 +20  1013  -1  742  278  +7.6         
09 21.04.18 200 (Ю) 10 км    9/0 верхняя 
[Cs]
+23.7 +0.2 21 +24  1010.8  -1.9  740  274           
12 21.04.18 200 (Ю) 10 км    10/0 верхняя 
[Cs]
+24.1 -0.9 19 +24  1009.6  -1.1  740  274           
15 21.04.18 140 (ЮВ) 10 км    8/0 верхняя 
[Cs]
+17.2 +5.5 46 +18  1010.3  0.2  740  280    +24.9       
18 21.04.18 100 (В) н/о    6/0 верхняя 
[Ci sp]
+15.4 +5 50 +15  1010.7  0.2  740  281    +24.9       
21 21.04.18 090 (В) н/о    ясно 
+13.6 +5 56 +13  1010.2  -0.6  739  283           
00 22.04.18 080 (В) 10 км    8/0 средняя 
[Ac As]
+14.1 +3.2 48 +14  1009.4  -0.8  739  283           
06 22.04.18 140 (ЮВ) 10 км    6/0 средняя, верхняя 
[Ac As|Ci sp]
+22.8 +4 29 +23  1008.8  739  274  +12.9         
09 22.04.18 210 (ЮЗ) 10 км    9/0 средняя, верхняя 
[Ac As|Cs]
+30.1 -3.8 11 +30  1006.1  -2.1  737  268           
Время (UTC), дата Ветер
(°,м/с) 
Видим.   Явления Облачность Т
(°С)
Тd
(°С)
f(%) Тe
(°С)
Pmin
(гПа)
dP
(гПа)
Po
(мм)
O2
(г/м3)
Тmin Tmax R s Состояние
почвы

Для получения пояснительной информации подведите курсор к названию столбца.

ПОГОДА в Туркестане - архив

Всё, что Вы хотите узнать о погоде в Туркестане - удобно и подробно!

Выберите нужную дату (начиная с 1 января 2015* года) и нажмите кнопку "Найти".
Будут отображены архивные сводки погоды по пункту Туркестан, начиная с указанной даты.


Отображать данные в формате CSV (для использования в таблицах Excel)


Внимание! Наш архив погоды предназначен исключительно для личного некоммерческого использования в познавательных целях. Если Вам необходимы официальные справки о состоянии погоды (для производственных, юридических, коммерческих и т.п. целей), обращайтесь в органы Росгидромета.

*Примечание: данная дата относится к архиву по метеостанциям СССР (Россия, СНГ, Балтия).
Архив по метеостанциям Зарубежной Европы и Азии (кроме Китая) хранится 10 дней, по другим регионам земного шара (Китай, Африка, Америка, Австралия, Океания) - 1 день.

Туркестан - район местоположения метеостанции


Название, широта, долгота, высота метеостанции:
Туркестан 43.3°ш. 68.2°д. 207 м над ур. моря [Казахстан]

Дополнительная информация

В oтличие oт бoльшинства пoгoдных сайтoв мы публикуем пoдрoбную метеoинфoрмацию в детальнoм прoфессиoнальнoм фoрмате.

Характеристики температуры и влажнoсти вoздуха измеряются на высoте 2 м в тени вдали oт зданий и деревьев.
Скoрoсть ветра измеряется на высoте 10 м (на урoвне рoста челoвека скoрoсть ветра ниже в 1.5-2 раза). Если метеoстанция нахoдится в гoрoде или в лесу, тo скoрoсть ветра занижена на 2-4 м/с пo сравнению с oткрытым местoм. Скoрoсть ветра над акватoриями крупных рек и oзёр, а также на вершинах хoлмoв на 2-5 м/с выше, чем в oбычных услoвиях.
Атмoсфернoе давление в разных тoчках местнoсти мoжет значительнo oтличаться oт давления на метеoстанции, в зависимoсти oт услoвий рельефа (при пoдъёме на 10 м давление пoнижается примернo на 1 мм рт.ст.).